User: anonymous   Login
Location: Knowlton
(51.2333°N, 1.2667°E)
Time: 10:10:11
(UTC+00:00)
Language:

PicSat - Orbit

View from above orbital plane
View from above orbital plane
View from above satellite
View from above satellite

Ground track
Ground track

The orbit data is extracted from the following two-line orbital elements,

1 43131U 18004W   21334.44891473  .00007028  00000-0  25154-3 0  9995
2 43131  97.3986  49.3488 0007348 346.3071  13.7969 15.29064848216111
Epoch (UTC): 30 November 2021 10:46:26
Eccentricity: 0.0007348
inclination: 97.3986°
perigee height: 473 km
apogee height: 483 km
right ascension of ascending node: 49.3488°
argument of perigee: 346.3071°
revolutions per day: 15.29064848
mean anomaly at epoch: 13.7969°
orbit number at epoch: 21611

The dashed part of the orbit path shows where the satellite is in the earth's shadow,  

DLR